Flight Information

DEPARTURE
BILLINGS, MT
Elevation:
3662
Runways:
7/25 - 5501x75 - ASPH-G
10L/28R - 10518x150 - ASPH-G
10R/28L - 3800x75 - ASPH-G
ATIS:
126.3
Clearance Delivery:
121.9
Ground:
121.9
Tower:
BILLINGS TOWER 127.2
DESTINATION
,
Elevation:
TPA:
1000 (est.)


6168.3 NM76° True-14° Var62° HDG

Flight Plan:
(click to file on line)

1. Type
2. Aircraft Identification
3. Aircraft Type / Special Equipment
4. True Airspeed
kts
5. Departure Airport
(ICAO code)
6. Arriving Airport
(ICAO code)
7. Cruising Altitude
ft
8. Alternate Airport
(ICAO code)
9. Route of Flight
10. Remarks


00:00:00 Departure ATIS: Destination ATIS:

Clearance Limit:
Route:
Altitude: Expect in minutes
Frequency:
Transponder: (7500 Hijack / 7600 Lost Comms / 7700 Emergency)


KBIL 261253Z 22005KT 10SM FEW090 09/06 A3043 RMK AO2 SLP297 T00940056
Time: 2022-06-26T12:53:00Z
1656251230
Winds: 220 @ 5 kts
Visibility: 10.0 sm
Clouds (AGL): FEW 9000
Temperature: 9.4 C
Dew Point: 5.6 C
Pressure: 30.431103 in Hgbr


Notes:

Data extracted from FAA Digital Chart Supplement. Effective: 0901Z Thursday, 27 JAN 2022 to 0900z Thursday, 24 MAR 2022
Current ATIS data is provided courtisy of PilotEdge.